Change the Weather History Date:

Monday, August 6, 2012

  Actual Average Record
Temperature  
Mean Temperature 84 °F -  
Max Temperature 98 °F 75 °F 98 °F (2012)
Min Temperature 69 °F 55 °F 41 °F (2004)
Cooling Degree Days 18    
Growing Degree Days 34 (Base 50)    
Moisture  
Dew Point 61 °F    
Average Humidity 49    
Maximum Humidity 73    
Minimum Humidity 25    
Precipitation  
Precipitation 0.00 in - - ()
Sea Level Pressure  
Sea Level Pressure 29.89 in    
Wind  
Wind Speed 5 mph ()    
Max Wind Speed 16 mph    
Max Gust Speed 22 mph    
Averages and records for this station are not official NWS values.
T = Trace of Precipitation, MM = Missing Value Source: Averaged Metar Reports

Daily Weather History Graph

Daily Weather History Graph

Search for Another Location

Airport or City:

Trip Planner

Search our weather history database for the weather conditions in past years. The results will help you decide how hot, cold, wet, or windy it might be!

Date:

Astronomy

Aug. 06, 2012 Rise Set
Actual Time 5:27 AM CEST 8:09 PM CEST
Civil Twilight 4:52 AM CEST 8:44 PM CEST
Nautical Twilight 4:07 AM CEST 9:28 PM CEST
Astronomical Twilight 3:15 AM CEST 10:20 PM CEST
Moon 9:42 PM CEST (8/6) 10:23 AM CEST (8/6)
Length of Visible Light 15h 51m
Length of Day
14h 41m
Waning Gibbous, 80% of the Moon is Illuminated
Aug 6
Waning Gibbous
Aug 9
Last Quarter
Aug 17
New
Aug 24
First Quarter
Aug 31
Full

Hourly Weather History & Observations

Time (CEST) Temp. Heat Index Dew Point Humidity Pressure Visibility Wind Dir Wind Speed Gust Speed Precip Events Conditions
12:00 AM 75.2 °F - 62.6 °F 65% 29.89 in - Variable 3.5 mph - N/A   Clear
12:30 AM 75.2 °F - 60.8 °F 61% 29.89 in - Variable 3.5 mph - N/A   Clear
1:00 AM 75.2 °F - 62.6 °F 65% 29.89 in - East 4.6 mph - N/A   Clear
1:30 AM 73.4 °F - 60.8 °F 65% 29.89 in - Variable 3.5 mph - N/A   Clear
2:00 AM 75.2 °F - 62.6 °F 65% 29.89 in - Variable 3.5 mph - N/A   Clear
2:30 AM 71.6 °F - 62.6 °F 73% 29.89 in - Variable 3.5 mph - N/A   Clear
3:00 AM 73.4 °F - 60.8 °F 65% 29.89 in - East 5.8 mph - N/A   Clear
3:30 AM 71.6 °F - 60.8 °F 69% 29.89 in - Variable 2.3 mph - N/A   Clear
4:00 AM 75.2 °F - 60.8 °F 61% 29.89 in - East 6.9 mph - N/A   Clear
4:30 AM 73.4 °F - 60.8 °F 65% 29.89 in - ENE 5.8 mph - N/A   Clear
5:00 AM 69.8 °F - 60.8 °F 73% 29.89 in - Variable 3.5 mph - N/A   Clear
5:30 AM 71.6 °F - 60.8 °F 69% 29.89 in - ENE 4.6 mph - N/A   Clear
6:00 AM 69.8 °F - 60.8 °F 73% 29.89 in - ESE 4.6 mph - N/A   Clear
6:30 AM 71.6 °F - 62.6 °F 73% 29.89 in - ESE 4.6 mph - N/A   Clear
7:00 AM 75.2 °F - 64.4 °F 69% 29.92 in - Variable 3.5 mph - N/A   Clear
7:30 AM 77.0 °F - 64.4 °F 65% 29.92 in - ESE 5.8 mph - N/A   Clear
8:00 AM 78.8 °F - 62.6 °F 57% 29.92 in - SSE 6.9 mph - N/A   Clear
8:30 AM 78.8 °F - 62.6 °F 57% 29.92 in - SSE 5.8 mph - N/A   Clear
9:00 AM 80.6 °F 82.3 °F 64.4 °F 58% 29.92 in - SSE 5.8 mph - N/A   Clear
9:30 AM 82.4 °F 83.9 °F 64.4 °F 54% 29.92 in - South 4.6 mph - N/A   Clear
10:00 AM 84.2 °F 86.6 °F 66.2 °F 55% 29.92 in - SSE 5.8 mph - N/A   Clear
10:30 AM 86.0 °F 86.6 °F 62.6 °F 45% 29.92 in - South 6.9 mph - N/A   Clear
11:00 AM 87.8 °F 89.4 °F 64.4 °F 46% 29.92 in - South 6.9 mph - N/A   Clear
11:30 AM 89.6 °F 89.5 °F 60.8 °F 38% 29.92 in - SSW 8.1 mph - N/A   Clear
12:00 PM 91.4 °F 93.2 °F 64.4 °F 41% 29.92 in - SW 6.9 mph - N/A   Clear
12:30 PM 93.2 °F 94.1 °F 62.6 °F 36% 29.92 in - SSW 9.2 mph - N/A   Clear
1:00 PM 93.2 °F 94.1 °F 62.6 °F 36% 29.89 in - South 9.2 mph - N/A   Clear
1:30 PM 93.2 °F 93.3 °F 60.8 °F 34% 29.89 in - WSW 10.4 mph - N/A   Clear
2:00 PM 95.0 °F 95.2 °F 60.8 °F 32% 29.89 in - SSW 11.5 mph - N/A   Clear
2:30 PM 96.8 °F 95.8 °F 57.2 °F 27% 29.89 in - SW 10.4 mph 21.9 mph N/A   Clear
3:00 PM 96.8 °F 95.8 °F 57.2 °F 27% 29.89 in - WSW 16.1 mph - N/A   Clear
3:30 PM 96.8 °F 96.2 °F 59.0 °F 28% 29.89 in - SW 10.4 mph - N/A   Clear
4:00 PM 98.6 °F 97.6 °F 57.2 °F 25% 29.89 in - SW 10.4 mph - N/A   Clear
4:30 PM 98.6 °F 97.6 °F 57.2 °F 25% 29.86 in - SSW 9.2 mph - N/A   Clear
5:00 PM 96.8 °F 95.1 °F 55.4 °F 25% 29.86 in - SSW 8.1 mph - N/A   Clear
5:30 PM 96.8 °F 95.1 °F 55.4 °F 25% 29.86 in - South 8.1 mph - N/A   Clear
6:00 PM 96.8 °F 95.1 °F 55.4 °F 25% 29.83 in - SSW 9.2 mph - N/A   Clear
6:30 PM 95.0 °F 95.2 °F 60.8 °F 32% 29.83 in - SW 6.9 mph - N/A   Clear
7:00 PM 96.8 °F 96.2 °F 59.0 °F 28% 29.86 in - SW 5.8 mph - N/A   Clear
7:30 PM 95.0 °F 94.4 °F 59.0 °F 30% 29.86 in - SW 5.8 mph - N/A   Clear
8:00 PM 93.2 °F 91.9 °F 57.2 °F 30% 29.86 in - SW 8.1 mph - N/A   Clear
8:30 PM 91.4 °F 89.9 °F 57.2 °F 31% 29.86 in - SSW 4.6 mph - N/A   Clear
9:00 PM 86.0 °F 85.4 °F 59.0 °F 40% 29.86 in - South 4.6 mph - N/A   Clear
9:30 PM 82.4 °F 82.5 °F 59.0 °F 45% 29.83 in - Variable 3.5 mph - N/A   Clear
10:00 PM 78.8 °F - 59.0 °F 51% 29.83 in - East 4.6 mph - N/A   Clear
10:30 PM 77.0 °F - 60.8 °F 57% 29.86 in - Calm Calm - N/A   Clear
11:00 PM 75.2 °F - 60.8 °F 61% 29.86 in - Calm Calm - N/A   Clear
11:30 PM 75.2 °F - 60.8 °F 61% 29.86 in - Variable 2.3 mph - N/A   Clear